Location: Saboussir�
(15.3490°N, 12.5453°W)
Time: 09:07:09
(UTC+00:00)

Daily predictions for brighter satellites

Satellite Brightness Start Highest point End
(mag) Time Altitude Azimuth Time Altitude Azimuth Time Altitude Azimuth
ATLAS CENTAUR Rocket 4.1 18:56:46 10° WNW 19:00:59 33° N 19:13:38 10° ENE
Cosmos 1269 Rocket 4.3 19:13:54 10° S 19:18:54 45° E 19:23:53 10° NNE
FengYun 1-2 T 4.3 19:14:54 10° SSE 19:20:27 88° ENE 19:25:57 10° NNW
Cosmos 1553 Rocket 3.9 19:16:28 10° S 19:22:33 74° E 19:28:34 10° N
STARLINK-1150 3.4 19:20:08 10° NW 19:23:22 66° SW 19:26:37 10° SSE
USA 234 3.9 19:18:40 10° NNE 19:25:04 60° NW 19:31:28 10° SW
GPS 2-15 Rocket1 3.2 19:20:10 10° WSW 19:25:04 88° NNW 19:29:54 10° ENE
CZ-4 R/B 1.4 19:22:45 10° SSE 19:26:38 58° ENE 19:30:27 10° N
ATLAS 3B CENTAUR R/B 3.4 19:21:05 10° WNW 19:27:53 30° N 19:31:24 10° ENE
STARLINK-1132 3.8 19:26:21 10° NW 19:29:33 52° SW 19:32:47 10° SSE
ADEOS Rocket 3.5 19:24:22 10° N 19:30:31 65° WNW 19:36:08 10° SSW
Cosmos 2098 Rocket 3.3 19:26:27 10° N 19:30:44 67° E 19:36:11 10° S
STARLINK-1177 4.0 19:28:22 10° NW 19:31:34 48° SW 19:34:45 10° SSE
STARLINK-1167 4.1 19:29:38 10° NW 19:32:50 46° SW 19:36:01 10° SSE
Cosmos 1707 3.1 19:29:48 10° N 19:33:40 69° W 19:37:32 10° S
Cosmos 1420 Rocket 4.1 19:29:02 10° N 19:34:06 51° ENE 19:39:06 10° SSE
Cosmos 1844 4.2 19:28:31 10° NNW 19:34:09 67° WSW 19:39:52 10° S
Cosmos 2278 Rocket 3.3 19:30:01 10° NNE 19:34:25 23° ENE 19:38:47 10° ESE
Cosmos 2056 Rocket 4.1 19:30:19 10° NNW 19:35:20 59° WSW 19:40:20 10° S
STARLINK-1163 4.3 19:32:43 10° NW 19:35:52 41° SW 19:39:01 10° SSE
SEDSat Delta rocket 4.4 19:36:13 10° W 19:40:44 36° NNW 19:44:46 10° NE
STARLINK-1120 4.5 19:38:55 10° NNW 19:42:39 32° NE 19:45:28 15° ESE
Cosmos 1939 Rocket 2.8 19:42:43 10° SSE 19:46:47 84° ENE 19:50:46 10° N
STARLINK-1131 4.3 19:43:48 10° NNW 19:47:39 37° NE 19:50:15 18° ESE
Cosmos 1271 Rocket 2.5 19:44:12 10° N 19:47:54 73° E 19:51:37 10° S
Cosmos 1733 3.0 19:45:26 10° S 19:49:11 74° E 19:52:56 10° N
Okean-O 4.5 19:46:13 10° SSW 19:50:12 34° W 19:54:13 10° NW
Meteor 1-22 Rocket 4.0 19:45:23 10° S 19:50:49 79° E 19:56:06 10° N
CSL-04 Debris 4.1 19:45:31 10° SSE 19:50:59 72° ENE 19:56:26 10° N
Meteor 2-8 Rocket 4.4 19:45:19 10° S 19:51:26 70° E 19:57:31 10° N
STARLINK-1190 4.1 19:48:41 10° NNW 19:52:38 42° NE 19:55:03 21° ESE
CZ-3 Stage 3 4.1 19:59:07 10° W 20:04:05 47° N 20:27:15 10° ENE
CZ-2D R/B 4.0 20:01:08 10° S 20:04:52 53° W 20:08:37 10° NNW
SL-4 R/B 3.9 20:04:56 10° SSE 20:05:18 12° SSE 20:05:18 12° SSE
Cosmos 371 Rocket 3.4 20:04:04 10° N 20:08:45 51° ENE 20:11:50 20° SE
YAOGAN 1 3.8 20:06:35 10° S 20:10:42 43° W 20:14:48 10° NNW
Cosmos 1674 2.4 20:07:37 10° N 20:11:20 76° E 20:15:01 10° S
Cosmos 1452 Rocket 3.5 20:06:20 10° NNW 20:11:36 88° W 20:16:53 10° SSE
USA 81 4.0 20:07:05 10° N 20:12:17 64° E 20:17:29 10° S
Ariane Rocket 3.3 20:10:49 24° SE 20:13:23 42° ENE 20:18:08 10° N
Cosmos 1455 Rocket 3.9 20:09:36 10° SSW 20:13:47 52° W 20:18:00 10° N
KORONAS-FOTON 3.6 20:10:59 10° N 20:14:45 76° E 20:17:38 16° S
Cosmos 1709 Rocket 4.5 20:14:03 10° NNE 20:19:34 35° E 20:20:20 33° E
USA 229 DEB 3.9 20:14:11 10° NNW 20:21:47 88° ENE 20:29:03 12° SSE
USA 229 3.9 20:14:17 10° NNW 20:21:53 87° ENE 20:29:03 12° SSE
NOSS 3-3 (A) 3.6 20:17:11 10° SSW 20:22:43 74° ESE 20:28:31 10° NNE
NOSS 3-3 (C) 3.6 20:17:19 10° SSW 20:22:50 72° ESE 20:28:36 10° NNE
SL-16 R/B 3.9 20:19:53 10° SW 20:25:00 35° WNW 20:30:06 10° N
ARGOS Delta rocket 3.8 20:23:01 22° SSE 20:26:08 69° E 20:31:11 10° N
Centaur D-1AR AC-39 2.2 20:20:57 10° W 20:26:49 49° SSW 20:27:45 38° SSE
Lacrosse 4 Rocket 4.3 20:24:13 10° WNW 20:27:02 17° WSW 20:29:49 10° SW
deb Ariane 4.2 20:22:00 10° WSW 20:27:39 28° S 20:28:15 27° S
NOSS 3-1 (A) 4.2 20:21:40 10° NNW 20:30:05 68° ENE 20:35:41 26° SE
GPS 2-17 Rocket1 3.1 20:28:03 10° W 20:32:54 72° SSW 20:33:36 60° SE
GEOS 3 Rocket 4.2 20:29:56 15° SSE 20:34:03 54° WSW 20:39:02 10° NW
OAO 3 Rocket 4.2 20:30:54 10° NW 20:35:06 32° NNE 20:35:06 32° NNE
SJ-11-01 4.2 20:32:26 24° S 20:35:13 84° WSW 20:39:55 10° NNW
Cosmos 332 Rocket 3.6 20:31:23 10° N 20:36:16 80° ENE 20:37:12 58° SSE
Cosmos 1110 Rocket 4.3 20:31:43 10° N 20:36:03 46° NE 20:36:03 46° NE
SL-08 ROCKET BODY 4.4 20:30:45 10° N 20:36:46 82° W 20:42:41 10° S
Cosmos 1892 Rocket 3.9 20:32:39 10° NNW 20:37:05 66° W 20:40:22 18° S
Cosmos 1386 Rocket 4.4 20:31:20 10° N 20:37:20 79° W 20:43:20 10° S
STARLINK-1162 4.3 20:33:24 10° NW 20:37:26 50° SW 20:38:12 44° SSW
H-2A R/B 2.0 20:36:35 49° SE 20:37:56 68° ENE 20:43:13 10° N
STARLINK-1129 4.3 20:36:17 10° NW 20:40:17 48° SW 20:40:50 44° SSW
DELTA 2 R/B (1) 3.8 20:34:54 10° NW 20:40:19 52° NE 20:40:37 51° NE
Okean 1-7 Rocket 3.9 20:40:55 10° NNW 20:45:14 62° W 20:46:33 41° SSW
Cosmos 1603 3.5 20:41:01 10° S 20:46:40 75° ESE 20:47:53 55° NE
Atlas Centaur 2 1.8 20:41:13 10° WNW 20:46:40 65° SSW 20:46:43 65° SSW
Mugunghwa Rocket 4.2 20:45:44 10° WNW 20:53:29 69° NNE 20:54:35 60° ENE
DMSP B5D2-2 4.0 20:50:16 10° N 20:55:29 82° WNW 21:00:43 10° SSW
Milstar 3 Cent rocket 4.4 20:53:01 10° WNW 21:03:06 77° SSW 21:11:54 40° SE
ARGOS 3.4 21:07:33 65° NW 21:07:33 65° NW 21:12:17 10° NNW
Cosmos 2251 Rocket 4.2 21:02:34 10° SSW 21:07:42 51° WNW 21:12:54 10° N
GPS 2-15 Rocket1 4.4 21:04:44 10° W 21:08:02 38° NW 21:08:02 38° NW
Centaur AC-42 3.1 21:05:50 10° WNW 21:09:11 35° NW 21:09:11 35° NW
CZ-2C R/B 4.5 21:12:37 10° N 21:14:10 20° N 21:14:10 20° N
Cosmos 2278 Rocket 4.0 21:13:34 10° NW 21:18:15 27° WSW 21:21:13 18° SW
Delta 202 4.2 21:11:35 10° W 21:18:43 70° W 21:18:43 70° W
CZ-2C R/B 4.4 21:25:53 37° W 21:25:53 37° W 21:29:58 10° NNW
ATLAS 5 CENTAUR R/B 3.2 21:22:35 10° W 21:28:25 75° N 21:31:28 57° ENE
